Location: Weatherford
(35.5260°N, 98.7070°W)
Time: 04:44:04
(UTC-06:00)

Amateur Radio Satellites - All Passes

Search period start: 16 January 2017 04:14
Search period end: 17 January 2017 04:14
Location: Weatherford, 35.5260°N, 98.7070°W

Satellite Date Start Highest point End Downlink Frequencies (MHz)
Time Altitude Azimuth
MOZHAYETS 4 16 Jan 04:15:37 04:19:26 27° 264° (W) 04:23:19
YUBILEINY 16 Jan 04:28:59 04:34:08 17° 281° (W) 04:39:16 435.215
RS-15 16 Jan 04:29:21 04:36:51 18° 340° (NNW) 04:44:28 29.354- 29.394
ITAMSAT 1 16 Jan 04:44:17 04:48:41 29° 292° (WNW) 04:53:06 435.822/435.867
CUBESAT XI-V 16 Jan 04:46:39 04:51:20 89° 79° (E) 04:56:04 437.345
HORYU 2 16 Jan 05:00:32 05:02:41 13° 93° (E) 05:04:51 437.375
PHONESAT 2.4 16 Jan 05:01:31 05:03:46 45° 343° (NNW) 05:06:02 2401.200-2431.200
STARS 16 Jan 05:02:02 05:06:20 55° 259° (W) 05:10:39 437.465
Cosmos 2504 16 Jan 05:02:57 05:06:43 15° 280° (W) 05:10:25 435.465 / 435.565
AO-7 16 Jan 05:08:12 05:16:15 53° 294° (WNW) 05:24:13 29.400- 29.500
Cosmos 2491 16 Jan 05:13:50 05:18:46 16° 295° (WNW) 05:23:43 435.465 / 435.565
AIST 2 16 Jan 05:23:03 05:26:08 19° 50° (NE) 05:29:12 435.215
BRITE-PL 16 Jan 05:30:07 05:35:07 73° 100° (E) 05:39:42 437.365/2234.400
DANDE 16 Jan 05:33:55 05:37:02 50° 283° (WNW) 05:41:05 436.750
CUSAT 1 16 Jan 05:34:07 05:37:10 17° 296° (WNW) 05:40:42 437.405
KKS-1 16 Jan 05:34:34 05:35:50 11° 268° (W) 05:37:06 437.445
ISS 16 Jan 05:54:38 05:56:16 13° 26° (NNE) 05:57:56 145.825
GOMX 1 16 Jan 05:59:49 06:04:15 54° 100° (E) 06:08:24 467.674
Cubesat XI-IV 16 Jan 06:00:05 06:04:11 22° 95° (E) 06:08:15 437.490
STRAND 1 16 Jan 06:10:17 06:14:00 21° 67° (ENE) 06:17:43 437.568
NOAA 15 16 Jan 06:26:18 06:31:21 43° 99° (E) 06:36:22 137.62
HORYU 2 16 Jan 06:35:10 06:39:26 46° 287° (WNW) 06:43:41 437.375
PHONESAT 2.4 16 Jan 06:36:23 06:38:18 22° 359° (N) 06:40:14 2401.200-2431.200
LilacSat-2 16 Jan 06:44:47 06:48:39 84° 99° (E) 06:52:31 437.200
RS-15 16 Jan 06:49:17 06:56:46 17° 19° (NNE) 07:04:11 29.354- 29.394
CUTE-I 16 Jan 06:57:29 07:02:50 84° 103° (ESE) 07:08:11 437.470
AIST 2 16 Jan 07:00:48 07:04:43 37° 246° (WSW) 07:08:36 435.215
NOAA 18 16 Jan 07:03:27 07:08:44 49° 100° (E) 07:13:59 137.9125
DOVE 4 16 Jan 07:04:03 07:08:16 73° 283° (WNW) 07:12:23 437.250
CUTE 1.7 + AOD 2 16 Jan 07:05:17 07:06:35 11° 91° (E) 07:07:53 437.475
O/OREOS (USA 219) 16 Jan 07:05:50 07:10:00 38° 105° (ESE) 07:14:09 437.305
BRITE-PL 16 Jan 07:11:34 07:12:46 11° 299° (WNW) 07:13:56 437.365/2234.400
GONETS M04 16 Jan 07:16:02 07:24:12 40° 76° (ENE) 07:32:20
ISS 16 Jan 07:29:53 07:33:08 83° 224° (SW) 07:36:23 145.825
CINEMA 3 16 Jan 07:31:12 07:35:11 43° 99° (E) 07:39:15 145.822/145.860
CANX-2 16 Jan 07:31:19 07:35:02 28° 96° (E) 07:38:45 2200.000
Cosmos 2499 16 Jan 07:33:54 07:40:59 59° 80° (E) 07:47:54 435.465 / 435.565
Cubesat XI-IV 16 Jan 07:39:24 07:44:19 39° 289° (WNW) 07:49:15 437.490
GOMX 1 16 Jan 07:40:11 07:41:43 12° 296° (WNW) 07:43:15 467.674
STRAND 1 16 Jan 07:48:06 07:52:52 40° 261° (W) 07:57:39 437.568
SEEDS 16 Jan 07:52:48 07:56:29 28° 96° (E) 08:00:07 437.485
HO-68 16 Jan 08:00:00 08:07:02 55° 101° (ESE) 08:14:00 435.675
UWE-3 16 Jan 08:02:39 08:04:47 13° 93° (E) 08:06:57 435.000/436.395/437.385
NOAA 15 16 Jan 08:06:52 08:10:47 21° 294° (WNW) 08:14:39 137.62
COMPASS 1 16 Jan 08:07:44 08:11:18 26° 96° (E) 08:14:50 437.405
PHONESAT 2.4 16 Jan 08:10:37 08:12:51 40° 15° (NNE) 08:15:06 2401.200-2431.200
AAUSAT CUBESAT 2 16 Jan 08:23:56 08:27:41 31° 97° (E) 08:31:23 437.432
ZACube-1 16 Jan 08:31:50 08:34:45 17° 94° (E) 08:37:42 437.345
CUTE 1.7 + AOD 2 16 Jan 08:38:30 08:42:40 50° 285° (WNW) 08:46:48 437.475
CUTE-I 16 Jan 08:40:41 08:42:07 11° 299° (WNW) 08:43:32 437.470
NOAA 18 16 Jan 08:45:11 08:48:59 20° 296° (WNW) 08:52:46 137.9125
O/OREOS (USA 219) 16 Jan 08:46:32 08:49:32 17° 300° (WNW) 08:52:30 437.305
CUBEBUG 2 16 Jan 08:58:26 09:02:43 79° 284° (WNW) 09:07:08 437.445
PRISM 16 Jan 08:59:25 09:03:31 62° 74° (ENE) 09:07:39 437.425
RS-15 16 Jan 09:01:52 09:13:40 47° 49° (NE) 09:25:00 29.354- 29.394
CANX-2 16 Jan 09:07:28 09:10:41 21° 291° (WNW) 09:13:53 2200.000
CINEMA 3 16 Jan 09:10:04 09:11:57 13° 293° (WNW) 09:13:51 145.822/145.860
GONETS M04 16 Jan 09:12:54 09:20:53 40° 273° (W) 09:28:52
Oscar 11 16 Jan 09:16:20 09:20:34 48° 99° (E) 09:24:46 145.826/435.025
SO-50 16 Jan 09:22:30 09:27:15 83° 302° (WNW) 09:31:57 436.795
Cosmos 2499 16 Jan 09:28:38 09:33:22 19° 277° (W) 09:38:03 435.465 / 435.565
SEEDS 16 Jan 09:28:48 09:31:58 21° 291° (WNW) 09:35:08 437.485
UNISAT 6 16 Jan 09:31:14 09:35:10 37° 72° (ENE) 09:39:05 437.425
UWE-3 16 Jan 09:37:16 09:41:23 44° 286° (WNW) 09:45:36 435.000/436.395/437.385
COMPASS 1 16 Jan 09:43:29 09:46:39 21° 291° (WNW) 09:49:49 437.405
PHONESAT 2.4 16 Jan 09:45:00 09:47:01 25° 210° (SSW) 09:49:02 2401.200-2431.200
JAS-2 16 Jan 09:45:15 09:48:41 18° 63° (ENE) 09:52:17 435.910
TIGRISAT 16 Jan 09:45:52 09:50:01 51° 75° (ENE) 09:54:09 435.000
FUNcube-1 16 Jan 09:46:33 09:50:52 66° 284° (WNW) 09:55:16 145.935
HO-68 16 Jan 09:48:36 09:54:16 26° 298° (WNW) 09:59:55 435.675
ANTELSAT 16 Jan 09:59:42 10:03:59 82° 79° (E) 10:08:15 437.575/2403.000
AAUSAT CUBESAT 2 16 Jan 10:00:02 10:02:52 18° 291° (WNW) 10:05:42 437.432
ZACube-1 16 Jan 10:07:07 10:11:04 34° 287° (WNW) 10:15:05 437.345
DELFI C3 16 Jan 10:23:00 10:27:01 81° 283° (WNW) 10:30:59 145.870
QB50P1 16 Jan 10:24:00 10:25:48 13° 66° (ENE) 10:27:36 145.935-145.965
POLYITAN 1 16 Jan 10:26:19 10:28:23 13° 66° (ENE) 10:30:27 437.675
QB50P2 16 Jan 10:27:02 10:29:25 15° 67° (ENE) 10:31:47 145.880/145.840
PCSat 16 Jan 10:28:43 10:32:52 22° 52° (NE) 10:37:00 145.827
POPSAT HIP 1 16 Jan 10:48:40 10:52:02 24° 70° (ENE) 10:55:24 437.405
Oscar 11 16 Jan 10:54:11 10:56:14 13° 294° (WNW) 10:58:17 145.826/435.025
HUMSAT D 16 Jan 10:59:57 11:04:09 57° 284° (WNW) 11:08:21 437.325/437.525
DUCHIFAT 1 16 Jan 11:05:07 11:08:49 31° 72° (ENE) 11:12:32 145.980
SO-50 16 Jan 11:07:26 11:08:25 11° 317° (NW) 11:09:22 436.795
NANOSAT C BR1 16 Jan 11:07:56 11:11:48 38° 73° (ENE) 11:15:41 145.865
UNISAT 6 16 Jan 11:09:29 11:11:59 15° 266° (W) 11:14:29 437.425
RS-15 16 Jan 11:14:39 11:26:14 52° 251° (WSW) 11:37:22 29.354- 29.394
TIGRISAT 16 Jan 11:25:56 11:26:57 11° 268° (W) 11:27:58 435.000
JAS-2 16 Jan 11:28:20 11:33:19 48° 261° (W) 11:38:37 435.910
BY70-1 16 Jan 11:43:59 11:47:21 56° 285° (WNW) 11:50:33 436.1900
QB50P1 16 Jan 11:57:05 12:01:07 47° 260° (W) 12:05:11 145.935-145.965
BUGSAT 1 16 Jan 11:58:42 12:02:38 46° 74° (ENE) 12:06:33 437.445
POLYITAN 1 16 Jan 11:59:47 12:03:46 43° 261° (W) 12:07:46 437.675
QB50P2 16 Jan 12:00:55 12:04:51 39° 261° (W) 12:08:48 145.880/145.840
CUBEBUG 1 16 Jan 12:05:47 12:10:00 48° 100° (E) 12:14:10 437.445
Oscar 19 16 Jan 12:09:15 12:12:44 18° 65° (ENE) 12:16:14 437.125/150
AISAT 16 Jan 12:09:55 12:13:55 33° 98° (E) 12:17:52 437.250
PCSat 16 Jan 12:11:17 12:16:30 49° 249° (WSW) 12:21:41 145.827
SPROUT 16 Jan 12:11:38 12:15:04 24° 96° (E) 12:18:30 437.525
ESTCUBE 1 16 Jan 12:11:42 12:16:15 79° 284° (WNW) 12:20:46 437.505/2401.250
POPSAT HIP 1 16 Jan 12:24:20 12:27:42 23° 264° (W) 12:31:03 437.405
50 SAT 16 Jan 12:33:25 12:36:52 45° 100° (E) 12:40:15 437.505
DUCHIFAT 1 16 Jan 12:41:47 12:44:31 17° 266° (W) 12:47:17 145.980
VELOX 1 16 Jan 12:43:17 12:47:42 81° 104° (ESE) 12:52:04 145.980
NANOSAT C BR1 16 Jan 12:45:22 12:47:38 14° 267° (W) 12:49:56 145.865
Gurwin Techsat 1B 16 Jan 13:23:43 13:28:50 51° 73° (ENE) 13:33:58 435.225
Cosmos 2491 16 Jan 13:26:30 13:34:35 39° 75° (ENE) 13:42:37 435.465 / 435.565
DX 1 16 Jan 13:30:56 13:35:12 61° 285° (WNW) 13:39:27 434.975-435.025
YUBILEINY 16 Jan 13:33:55 13:39:18 18° 80° (E) 13:44:42 435.215
BUGSAT 1 16 Jan 13:37:05 13:38:12 11° 267° (W) 13:39:18 437.445
UKube-1 16 Jan 13:39:17 13:43:34 68° 285° (WNW) 13:47:50 .
CUBEBUG 1 16 Jan 13:43:53 13:45:49 13° 294° (WNW) 13:47:44 437.445
Oscar 19 16 Jan 13:46:38 13:51:38 48° 260° (W) 13:56:40 437.125/150
AISAT 16 Jan 13:47:04 13:50:05 18° 292° (WNW) 13:53:06 437.250
SPROUT 16 Jan 13:47:28 13:50:53 24° 290° (WNW) 13:54:16 437.525
Cosmos 2504 16 Jan 13:54:36 13:56:21 11° 77° (ENE) 13:58:06 435.465 / 435.565
TISAT 1 16 Jan 13:55:29 13:59:33 51° 100° (E) 14:03:36 437.305
BEESAT 16 Jan 14:03:01 14:03:50 10° 91° (E) 14:04:39 436.000
SWISSCUBE 16 Jan 14:03:03 14:05:03 12° 92° (E) 14:07:03 437.505
AO-7 16 Jan 14:11:59 14:19:13 34° 61° (ENE) 14:26:26 29.400- 29.500
AIST 1 16 Jan 14:14:43 14:18:31 29° 90° (E) 14:22:17
ITAMSAT 1 16 Jan 14:19:53 14:24:29 34° 70° (ENE) 14:29:07 435.822/435.867
CUSAT 1 16 Jan 14:25:18 14:32:35 38° 73° (ENE) 14:39:34 437.405
DANDE 16 Jan 14:30:54 14:35:13 16° 68° (ENE) 14:39:45 436.750
ITUPSAT 1 16 Jan 14:59:35 15:04:13 46° 100° (E) 15:08:49 437.325
AO-85 16 Jan 15:05:37 15:10:28 76° 118° (ESE) 15:14:57 145.980
Gurwin Techsat 1B 16 Jan 15:05:40 15:09:01 17° 267° (W) 15:12:22 435.225
Cosmos 2491 16 Jan 15:23:21 15:31:19 41° 273° (W) 15:39:18 435.465 / 435.565
YUBILEINY 16 Jan 15:26:09 15:34:58 80° 277° (W) 15:43:51 435.215
TISAT 1 16 Jan 15:33:19 15:34:42 11° 295° (WNW) 15:36:04 437.305
BEESAT 16 Jan 15:37:14 15:41:59 67° 285° (WNW) 15:46:43 436.000
SWISSCUBE 16 Jan 15:38:26 15:43:08 57° 286° (WNW) 15:47:49 437.505
Cosmos 2504 16 Jan 15:39:33 15:48:20 72° 93° (E) 15:56:41 435.465 / 435.565
JUGNU 16 Jan 15:40:09 15:42:20 12° 167° (SSE) 15:44:31 437.505
KKS-1 16 Jan 15:50:17 15:52:22 13° 93° (E) 15:54:27 437.445
AUBIESAT-1 16 Jan 15:52:01 15:52:28 10° 97° (E) 15:52:55 437.475
AIST 1 16 Jan 15:52:56 15:56:05 19° 285° (WNW) 15:59:14
ITAMSAT 1 16 Jan 15:59:48 16:03:57 24° 264° (W) 16:08:08 435.822/435.867
AO-7 16 Jan 16:03:35 16:11:36 51° 258° (WSW) 16:19:43 29.400- 29.500
CUSAT 1 16 Jan 16:07:07 16:14:30 43° 270° (W) 16:21:29 437.405
DANDE 16 Jan 16:11:00 16:18:39 83° 83° (E) 16:27:03 436.750
MOZHAYETS 4 16 Jan 16:12:32 16:17:12 88° 98° (E) 16:21:51
BRITE-PL 16 Jan 16:36:10 16:41:43 62° 75° (ENE) 16:47:21 437.365/2234.400
ITUPSAT 1 16 Jan 16:38:38 16:41:38 17° 294° (WNW) 16:44:36 437.325
CUTE-I 16 Jan 16:40:35 16:42:18 12° 61° (ENE) 16:44:00 437.470
M-CUBED/EXP-1 PRIME 16 Jan 16:43:10 16:46:34 84° 107° (ESE) 16:49:49 437.505
CUBESAT XI-V 16 Jan 16:46:40 16:50:42 28° 96° (E) 16:54:40 437.345
AO-85 16 Jan 16:49:21 16:51:17 12° 313° (NW) 16:53:10 145.980
STARS 16 Jan 16:54:28 16:58:21 31° 98° (E) 17:02:15 437.465
GOMX 1 16 Jan 17:03:30 17:08:43 47° 73° (ENE) 17:13:48 467.674
O/OREOS (USA 219) 16 Jan 17:18:29 17:22:48 45° 67° (ENE) 17:27:08 437.305
Cubesat XI-IV 16 Jan 17:19:08 17:23:35 28° 68° (ENE) 17:28:03 437.490
BEESAT 3 16 Jan 17:22:39 17:26:25 55° 116° (ESE) 17:30:16 437.485
AUBIESAT-1 16 Jan 17:24:01 17:27:03 31° 292° (WNW) 17:30:00 437.475
LilacSat-2 16 Jan 17:24:09 17:27:15 25° 72° (ENE) 17:30:22 437.200
KKS-1 16 Jan 17:24:54 17:29:08 46° 287° (WNW) 17:33:21 437.445
JUGNU 16 Jan 17:26:51 17:30:34 17° 177° (S) 17:34:17 437.505
YUBILEINY 16 Jan 17:29:11 17:33:11 14° 297° (WNW) 17:37:13 435.215
HORYU 2 16 Jan 17:29:41 17:34:04 75° 257° (WSW) 17:38:30 437.375
Cosmos 2504 16 Jan 17:35:57 17:42:17 22° 290° (WNW) 17:48:28 435.465 / 435.565
NOAA 15 16 Jan 17:43:16 17:48:22 51° 72° (ENE) 17:53:30 137.62
DANDE 16 Jan 17:55:39 18:00:42 19° 275° (W) 18:05:59 436.750
SO-50 16 Jan 17:57:00 18:01:10 36° 55° (NE) 18:05:18 436.795
BEESAT 2 16 Jan 17:57:40 18:01:30 57° 116° (ESE) 18:05:24 435.950
DOVE 4 16 Jan 18:05:14 18:10:23 78° 77° (ENE) 18:15:19 437.250
CUTE-I 16 Jan 18:16:17 18:21:36 81° 257° (WSW) 18:26:56 437.470
BRITE-PL 16 Jan 18:17:11 18:20:30 16° 269° (W) 18:23:53 437.365/2234.400
CANX-2 16 Jan 18:22:23 18:24:40 14° 67° (ENE) 18:26:59 2200.000
CUBESAT XI-V 16 Jan 18:24:07 18:27:55 25° 291° (WNW) 18:31:42 437.345
HO-68 16 Jan 18:25:54 18:31:58 31° 64° (ENE) 18:38:02 435.675
NOAA 18 16 Jan 18:26:39 18:32:08 71° 74° (ENE) 18:37:37 137.9125
CINEMA 3 16 Jan 18:29:57 18:33:52 29° 72° (ENE) 18:37:40 145.822/145.860
STARS 16 Jan 18:31:21 18:34:28 19° 292° (WNW) 18:37:34 437.465
SEEDS 16 Jan 18:42:53 18:45:01 14° 67° (ENE) 18:47:11 437.485
GOMX 1 16 Jan 18:43:00 18:46:53 20° 267° (W) 18:50:44 467.674
SRMSAT 16 Jan 18:48:25 18:51:35 15° 171° (S) 18:54:44 437.500
COMPASS 1 16 Jan 18:56:59 18:58:53 13° 66° (ENE) 19:00:46 437.405
Cubesat XI-IV 16 Jan 18:58:49 19:03:30 32° 263° (W) 19:08:14 437.490
LilacSat-2 16 Jan 18:58:59 19:01:30 17° 266° (W) 19:04:02 437.200
O/OREOS (USA 219) 16 Jan 18:59:30 19:01:45 14° 261° (W) 19:03:59 437.305
BEESAT 3 16 Jan 19:02:44 19:04:23 12° 313° (NW) 19:06:01 437.485
AAUSAT CUBESAT 2 16 Jan 19:12:18 19:14:37 15° 67° (ENE) 19:16:58 437.432
JUGNU 16 Jan 19:15:30 19:18:50 15° 188° (S) 19:22:11 437.505
NOAA 15 16 Jan 19:25:06 19:28:23 17° 267° (W) 19:31:42 137.62
CUTE 1.7 + AOD 2 16 Jan 19:27:34 19:31:46 74° 76° (ENE) 19:36:01 437.475
BEESAT 2 16 Jan 19:37:58 19:39:38 12° 313° (NW) 19:41:19 435.950
SO-50 16 Jan 19:38:09 19:41:20 19° 250° (WSW) 19:44:30 436.795
CUBEBUG 2 16 Jan 19:53:30 19:57:37 56° 75° (ENE) 20:01:42 437.445
CANX-2 16 Jan 19:56:08 20:00:08 41° 262° (W) 20:04:10 2200.000
STRAND 1 16 Jan 20:01:06 20:06:16 87° 104° (ESE) 20:11:25 437.568
Cosmos 2499 16 Jan 20:05:18 20:13:41 57° 91° (E) 20:21:32 435.465 / 435.565
CINEMA 3 16 Jan 20:07:30 20:10:58 21° 264° (W) 20:14:20 145.822/145.860
Oscar 11 16 Jan 20:08:27 20:11:59 25° 70° (ENE) 20:15:31 145.826/435.025
NOAA 18 16 Jan 20:10:58 20:13:13 12° 268° (W) 20:15:29 137.9125
HO-68 16 Jan 20:12:31 20:19:21 47° 260° (W) 20:26:16 435.675
GONETS M04 16 Jan 20:13:02 20:21:17 50° 89° (E) 20:29:35
SEEDS 16 Jan 20:16:19 20:20:18 42° 261° (W) 20:24:20 437.485
COMPASS 1 16 Jan 20:29:59 20:33:58 45° 261° (W) 20:38:01 437.405
UWE-3 16 Jan 20:30:57 20:35:08 82° 261° (W) 20:39:17 435.000/436.395/437.385
SRMSAT 16 Jan 20:36:13 20:40:00 17° 181° (S) 20:43:48 437.500
FUNcube-1 16 Jan 20:38:55 20:42:59 62° 76° (ENE) 20:47:05 145.935
AAUSAT CUBESAT 2 16 Jan 20:45:50 20:49:43 38° 262° (W) 20:53:39 437.432
PRISM 16 Jan 20:46:54 20:47:22 10° 92° (E) 20:47:51 437.425
AIST 2 16 Jan 20:54:45 20:58:50 87° 299° (WNW) 21:03:00 435.215
ZACube-1 16 Jan 20:59:29 21:03:35 64° 259° (W) 21:07:42 437.345
DELFI C3 16 Jan 21:05:27 21:09:06 35° 73° (ENE) 21:12:47 145.870
TIGRISAT 16 Jan 21:41:31 21:43:46 14° 93° (E) 21:46:01 435.000
Oscar 11 16 Jan 21:44:36 21:48:00 23° 264° (W) 21:51:28 145.826/435.025
HUMSAT D 16 Jan 21:47:48 21:51:49 62° 76° (ENE) 21:55:53 437.325/437.525
ANTELSAT 16 Jan 21:54:40 21:58:03 21° 95° (E) 22:01:28 437.575/2403.000
BY70-1 16 Jan 21:57:56 21:59:12 12° 67° (ENE) 22:00:31 436.1900
Cosmos 2499 16 Jan 22:00:06 22:07:03 27° 287° (WNW) 22:13:43 435.465 / 435.565
GONETS M04 16 Jan 22:10:52 22:18:18 31° 287° (WNW) 22:25:50
PRISM 16 Jan 22:18:56 22:22:55 50° 286° (WNW) 22:26:52 437.425
SRMSAT 16 Jan 22:25:44 22:28:25 13° 191° (SSW) 22:31:05 437.500
ISS 16 Jan 22:33:08 22:34:38 13° 127° (SE) 22:36:09 145.825
JAS-2 16 Jan 22:38:51 22:44:58 29° 96° (E) 22:51:27 435.910
DELFI C3 16 Jan 22:41:53 22:44:00 14° 267° (W) 22:46:07 145.870
CUBEBUG 1 16 Jan 22:58:50 23:02:37 28° 71° (ENE) 23:06:24 437.445
UNISAT 6 16 Jan 23:01:36 23:05:58 62° 285° (WNW) 23:10:24 437.425
SPROUT 16 Jan 23:03:32 23:05:33 13° 66° (ENE) 23:07:33 437.525
AISAT 16 Jan 23:04:39 23:08:03 22° 69° (ENE) 23:11:27 437.250
50 SAT 16 Jan 23:07:00 23:08:27 12° 68° (ENE) 23:09:55 437.505
ESTCUBE 1 16 Jan 23:07:49 23:12:17 64° 75° (ENE) 23:16:47 437.505/2401.250
TIGRISAT 16 Jan 23:16:25 23:20:36 45° 287° (WNW) 23:24:53 435.000
RS-15 16 Jan 23:21:41 23:31:55 37° 105° (ESE) 23:42:32 29.354- 29.394
BY70-1 16 Jan 23:27:16 23:29:21 19° 265° (W) 23:31:36 436.1900
ANTELSAT 16 Jan 23:30:53 23:34:43 29° 289° (WNW) 23:38:36 437.575/2403.000
VELOX 1 16 Jan 23:37:16 23:41:32 48° 74° (ENE) 23:45:49 145.980
AO-85 16 Jan 23:40:37 23:43:47 23° 53° (NE) 23:46:57 145.980
QB50P1 16 Jan 23:44:41 23:48:29 32° 98° (E) 23:52:15 145.935-145.965
POLYITAN 1 16 Jan 23:47:25 23:51:18 35° 98° (E) 23:55:11 437.675
QB50P2 16 Jan 23:48:27 23:52:25 39° 99° (E) 23:56:22 145.880/145.840
ISS 17 Jan 00:07:38 00:10:48 48° 322° (NW) 00:13:57 145.825
POPSAT HIP 1 17 Jan 00:10:51 00:15:04 68° 102° (ESE) 00:19:15 437.405
DX 1 17 Jan 00:22:56 00:27:18 77° 76° (ENE) 00:31:40 434.975-435.025
JAS-2 17 Jan 00:23:13 00:30:00 51° 289° (WNW) 00:37:23 435.910
DUCHIFAT 1 17 Jan 00:26:54 00:31:06 89° 281° (W) 00:35:18 145.980
NANOSAT C BR1 17 Jan 00:30:16 00:34:28 73° 284° (WNW) 00:38:39 145.865
UKube-1 17 Jan 00:30:20 00:34:37 67° 75° (ENE) 00:38:56 .
CUBEBUG 1 17 Jan 00:35:26 00:38:50 22° 265° (W) 00:42:16 437.445
SPROUT 17 Jan 00:36:56 00:41:01 46° 260° (W) 00:45:08 437.525
50 SAT 17 Jan 00:38:05 00:41:19 33° 262° (W) 00:44:36 437.505
AISAT 17 Jan 00:40:26 00:44:18 29° 263° (W) 00:48:12 437.250
TISAT 1 17 Jan 00:44:24 00:47:51 25° 70° (ENE) 00:51:18 437.305
PCSat 17 Jan 01:06:57 01:11:44 33° 109° (ESE) 01:16:33 145.827
SWISSCUBE 17 Jan 01:07:52 01:09:08 11° 63° (ENE) 01:10:25 437.505
VELOX 1 17 Jan 01:16:09 01:18:12 13° 267° (W) 01:20:15 145.980
BUGSAT 1 17 Jan 01:18:18 01:22:16 63° 285° (WNW) 01:26:16 437.445
AO-85 17 Jan 01:20:58 01:24:04 23° 248° (WSW) 01:27:10 145.980
QB50P1 17 Jan 01:21:09 01:23:58 18° 292° (WNW) 01:26:48 145.935-145.965
POLYITAN 1 17 Jan 01:24:07 01:26:47 16° 292° (WNW) 01:29:26 437.675
QB50P2 17 Jan 01:25:27 01:27:51 15° 293° (WNW) 01:30:15 145.880/145.840
RS-15 17 Jan 01:32:04 01:43:43 61° 305° (NW) 01:55:56 29.354- 29.394
Cosmos 2504 17 Jan 01:38:21 01:43:12 18° 68° (ENE) 01:47:54 435.465 / 435.565
YUBILEINY 17 Jan 01:40:27 01:48:49 45° 77° (ENE) 01:57:05 435.215
BEESAT 3 17 Jan 01:43:24 01:45:38 14° 49° (NE) 01:47:50 437.485
Gurwin Techsat 1B 17 Jan 01:43:27 01:47:50 26° 96° (E) 01:52:11 435.225
Oscar 19 17 Jan 02:01:00 02:06:12 77° 103° (ESE) 02:11:20 437.125/150
AIST 1 17 Jan 02:01:30 02:05:48 77° 84° (E) 02:10:02
ITUPSAT 1 17 Jan 02:03:23 02:07:45 38° 71° (ENE) 02:12:10 437.325
BEESAT 2 17 Jan 02:19:12 02:21:36 15° 49° (NE) 02:23:59 435.950
TISAT 1 17 Jan 02:20:11 02:23:24 21° 264° (W) 02:26:38 437.305
Cosmos 2491 17 Jan 02:23:39 02:31:54 49° 89° (E) 02:40:09 435.465 / 435.565
AUBIESAT-1 17 Jan 02:33:43 02:35:46 13° 63° (ENE) 02:37:46 437.475
ITAMSAT 1 17 Jan 02:36:50 02:39:47 15° 93° (E) 02:42:43 435.822/435.867
BEESAT 17 Jan 02:40:19 02:45:04 82° 256° (WSW) 02:49:50 436.000
SWISSCUBE 17 Jan 02:41:34 02:46:17 70° 258° (WSW) 02:51:02 437.505
PCSat 17 Jan 02:50:23 02:55:05 30° 305° (NW) 02:59:50 145.827
MOZHAYETS 4 17 Jan 03:11:09 03:15:37 57° 74° (ENE) 03:20:06
BEESAT 3 17 Jan 03:19:38 03:23:29 47° 245° (WSW) 03:27:18 437.485
Gurwin Techsat 1B 17 Jan 03:23:01 03:27:45 34° 290° (WNW) 03:32:29 435.225
PHONESAT 2.4 17 Jan 03:23:30 03:25:41 37° 152° (SSE) 03:27:53 2401.200-2431.200
CUSAT 1 17 Jan 03:24:15 03:28:05 28° 86° (E) 03:32:52 437.405
M-CUBED/EXP-1 PRIME 17 Jan 03:25:08 03:29:38 65° 71° (ENE) 03:33:54 437.505
Cosmos 2504 17 Jan 03:29:55 03:37:15 67° 267° (W) 03:44:19 435.465 / 435.565
YUBILEINY 17 Jan 03:37:38 03:45:18 35° 274° (W) 03:52:56 435.215
ITUPSAT 1 17 Jan 03:42:24 03:45:41 18° 266° (W) 03:48:59 437.325
Oscar 19 17 Jan 03:43:04 03:44:48 12° 298° (WNW) 03:46:32 437.125/150
CUBESAT XI-V 17 Jan 03:47:27 03:50:51 20° 68° (ENE) 03:54:17 437.345
STARS 17 Jan 03:48:40 03:51:53 20° 68° (ENE) 03:55:06 437.465
RS-15 17 Jan 03:51:09 03:59:35 21° 334° (NNW) 04:08:10 29.354- 29.394
BEESAT 2 17 Jan 03:55:44 03:59:36 45° 245° (WSW) 04:03:26 435.950
AUBIESAT-1 17 Jan 04:05:27 04:09:48 52° 255° (WSW) 04:13:55 437.475
